[[{"header":{"parameterUnit":"m.s-1","parameterCategory":1,"la1":30.2991,"la2":30.254,"lo1":-89.0895,"lo2":-89.0444,"dy":0.0017,"dx":0.0017,"nx":28,"ny":28,"refTime":"2025-12-30T09:00:00:Z","depth":0,"parameterNumber":2,"parameterNumberName":"U-component_of_WINDS"},"data":[0,0,0,0,0,0,0,0,0,0,0,0,0,0,0,0,0,0,0,0,0,0,0,0,0,0,0,0,0,0,0,0,0,0,0,0,0,0,0,0,0,0,0,0,0,0,0,0,0,0,0,0,0,0,0,0,0,0,1.9233,1.9233,0,1.9206,1.9205,1.9205,1.9176,1.9176,1.9175,1.9175,1.9146,1.9145,1.9145,0,0,0,0,0,0,0,0,0,0,0,0,0,1.926,1.9259,1.9233,1.9233,1.9232,1.9206,1.9205,1.9205,1.9176,1.9176,1.9175,1.9175,1.9146,1.9145,1.9145,0,0,0,0,0,0,0,0,0,0,0,0,0,1.9242,1.9259,1.9233,1.9215,1.9213,1.9206,1.9205,1.9205,1.9176,1.9176,1.9175,1.9175,1.9146,1.9146,1.9145,1.9153,0,0,1.9143,1.9143,0,0,0,0,0,0,0,0,1.9243,1.9241,1.9218,1.9216,1.9214,1.9194,1.9204,1.9187,1.9177,1.919,1.9175,1.9174,1.9162,1.916,1.9156,1.9152,1.915,1.9143,1.9143,1.9142,1.9142,0,0,0,0,0,0,0,1.9244,1.9242,1.9222,1.9218,1.9215,1.9208,1.9205,1.9201,1.918,1.9189,1.9187,1.9184,1.9161,1.9157,1.9155,1.915,1.9143,1.9142,1.9142,1.9142,1.915,1.915,0,0,0,0,0,0,1.9248,1.9243,1.9223,1.9221,1.9227,1.9208,1.9204,1.9201,1.918,1.9176,1.9185,1.9183,1.9158,1.9156,1.9154,1.9161,1.9142,1.9142,1.9141,1.9149,1.915,1.915,0,0,0,0,0,0,1.9249,1.9247,1.9224,1.9232,1.9228,1.9208,1.9204,1.9201,1.9197,1.9177,1.9173,1.9184,1.9158,1.9155,1.9153,1.916,1.9141,1.9141,1.9148,1.9149,1.915,1.9176,0,0,0,0,0,0,1.925,1.9247,1.925,1.9232,1.9228,1.9224,1.9205,1.9201,1.9196,1.9193,1.9175,1.9172,1.9157,1.9154,1.9153,1.9159,1.914,1.9148,1.9149,1.915,1.9175,1.9178,1.9181,0,0,0,0,0,1.9251,1.9259,1.9251,1.9248,1.9231,1.9225,1.9222,1.9206,1.9196,1.9199,1.9186,1.9172,1.916,1.9155,1.9152,1.9158,1.9147,1.9148,1.915,1.9173,1.9177,1.9181,0,0,0,0,0,0,1.9278,1.9256,1.9247,1.9249,1.9239,1.922,1.9222,1.921,1.9202,1.92,1.918,1.9176,1.9176,1.9167,1.9162,1.9165,1.9151,1.9152,1.917,1.9174,1.9177,1.9178,1.914,0,0,0,0,0,1.9284,1.9281,1.9262,1.9265,1.9261,1.9243,1.9239,1.9227,1.9216,1.9211,1.9198,1.9188,1.9181,1.9177,1.917,1.9174,1.9169,1.9177,1.918,1.9182,1.9183,1.9183,1.9186,1.9155,1.9155,1.9155,0,0,1.9297,1.9284,1.9283,1.927,1.9261,1.9258,1.9239,1.9236,1.9233,1.9211,1.9208,1.9198,1.9185,1.9186,1.9185,1.9178,1.9191,1.9184,1.9186,1.9185,1.9185,1.9188,1.919,1.9155,1.9155,1.9155,0,0,1.9318,1.9309,1.931,1.9301,1.9288,1.9276,1.9277,1.9259,1.9252,1.9249,1.9232,1.9228,1.9218,1.9209,1.9203,1.9221,1.9207,1.9219,1.9234,1.9235,1.9237,1.9239,1.9244,1.9247,1.922,1.922,1.922,0,1.9335,1.9329,1.9312,1.931,1.9305,1.9285,1.9286,1.9279,1.9264,1.926,1.9252,1.9239,1.9228,1.9226,1.9231,1.9227,1.9226,1.922,1.9238,1.924,1.9242,1.9246,1.9249,1.9222,1.9221,1.9221,1.9221,0,1.935,1.9347,1.935,1.9336,1.9331,1.933,1.9313,1.931,1.9299,1.9288,1.9285,1.9272,1.9262,1.9261,1.925,1.9257,1.9253,1.9242,1.9228,1.9246,1.925,1.9252,1.9224,1.9223,1.9223,1.9222,0,0,1.9386,1.9363,1.9364,1.9358,1.9342,1.9338,1.9337,1.9328,1.9325,1.9315,1.9313,1.9305,1.9295,1.9288,1.9276,1.9277,1.9291,1.9266,1.9266,1.927,1.9297,1.9303,1.9306,1.9283,1.9283,1.9283,1.9297,0,1.9403,1.9399,1.9385,1.9385,1.9381,1.9363,1.9362,1.9351,1.9341,1.9336,1.9324,1.9318,1.9306,1.9302,1.9302,1.9289,1.9296,1.9288,1.9279,1.9279,1.9281,1.9308,1.9316,1.9329,1.9299,1.9299,1.9299,0,1.9422,1.9414,1.9414,1.9398,1.9396,1.9395,1.9385,1.938,1.9368,1.9361,1.9354,1.934,1.9337,1.9326,1.9321,1.9316,1.9312,1.9305,1.9305,1.9302,1.9289,1.9305,1.9334,1.9335,1.9302,1.9302,1.9301,0,1.9446,1.9436,1.9434,1.9429,1.9411,1.941,1.9403,1.939,1.9385,1.9377,1.9373,1.9364,1.9359,1.9352,1.9336,1.9329,1.9333,1.932,1.9325,1.9326,1.9325,1.9325,1.9352,1.9325,1.9325,1.9325,1.9325,0,1.9466,1.9466,1.9445,1.9444,1.9444,1.9427,1.9427,1.9418,1.9407,1.9403,1.9387,1.9384,1.9365,1.9359,1.9347,1.9344,1.9343,1.9336,1.9332,1.9336,1.9337,1.9332,1.933,1.9326,1.9326,1.9326,1.9325,0,1.9492,1.9478,1.9475,1.9458,1.9454,1.9454,1.944,1.9438,1.9427,1.9422,1.942,1.9403,1.9396,1.938,1.9369,1.936,1.936,1.9355,1.9364,1.9361,1.9367,1.9366,1.9391,1.9393,1.9366,1.9366,1.9366,0,1.9505,1.9505,1.9488,1.9484,1.9477,1.9472,1.9467,1.9451,1.9446,1.9433,1.9433,1.9424,1.9416,1.9406,1.9391,1.9382,1.9376,1.9385,1.9374,1.9378,1.9374,1.9374,1.9373,1.9387,1.9387,1.9388,1.9388,0,1.9528,1.9521,1.9515,1.9506,1.95,1.9493,1.9484,1.9482,1.9464,1.9459,1.9452,1.9446,1.9434,1.9426,1.9415,1.9406,1.9394,1.9392,1.9392,1.9396,1.94,1.9397,1.9369,1.9391,1.9391,1.939,1.939,1.939,1.9547,1.9546,1.9534,1.9527,1.9519,1.9511,1.9508,1.9497,1.9491,1.9481,1.9472,1.9465,1.9453,1.9436,1.9429,1.9423,1.9417,1.9418,1.9418,1.9418,1.9419,1.9403,1.9421,1.9421,1.9421,1.9421,1.9421,0,1.9568,1.956,1.9554,1.9542,1.9537,1.9527,1.9517,1.9513,1.9507,1.9497,1.949,1.9481,1.9473,1.9459,1.9449,1.9447,1.9441,1.9445,1.9444,1.9442,1.9426,1.9426,1.945,1.945,1.945,1.945,1.945,1.945,1.9579,1.9576,1.9568,1.9561,1.9552,1.9546,1.9541,1.9533,1.9525,1.9516,1.951,1.9501,1.9489,1.9478,1.947,1.9466,1.9463,1.9468,1.9462,1.9446,1.9444,1.9441,1.9441,1.9468,1.9468,1.9479,1.9479,1.9479]},{"header":{"parameterUnit":"m.s-1","parameterCategory":1,"la1":30.2991,"la2":30.254,"lo1":-89.0895,"lo2":-89.0444,"dy":0.0017,"dx":0.0017,"nx":28,"ny":28,"refTime":"2025-12-30T09:00:00:Z","depth":0,"parameterNumber":3,"parameterNumberName":"V-component_of_WINDS"},"data":[0,0,0,0,0,0,0,0,0,0,0,0,0,0,0,0,0,0,0,0,0,0,0,0,0,0,0,0,0,0,0,0,0,0,0,0,0,0,0,0,0,0,0,0,0,0,0,0,0,0,0,0,0,0,0,0,0,0,-3.9154,-3.9157,0,-3.9367,-3.9369,-3.9372,-3.9347,-3.9344,-3.934,-3.9337,-3.9555,-3.9564,-3.9573,0,0,0,0,0,0,0,0,0,0,0,0,0,-3.8727,-3.8735,-3.9154,-3.9157,-3.916,-3.9367,-3.937,-3.9373,-3.9348,-3.9343,-3.9339,-3.9335,-3.9553,-3.9563,-3.9574,0,0,0,0,0,0,0,0,0,0,0,0,0,-3.8923,-3.8737,-3.9154,-3.9172,-3.9176,-3.9366,-3.937,-3.9373,-3.9349,-3.9343,-3.9338,-3.9333,-3.9549,-3.9562,-3.9575,-3.9761,0,0,-3.9617,-3.9623,0,0,0,0,0,0,0,0,-3.8912,-3.8939,-3.9167,-3.9171,-3.9176,-3.9325,-3.9299,-3.9503,-3.935,-3.9283,-3.9337,-3.9331,-3.9483,-3.9502,-3.9553,-3.9772,-3.9781,-3.9618,-3.9626,-3.9632,-3.9636,0,0,0,0,0,0,0,-3.8898,-3.893,-3.9238,-3.917,-3.9176,-3.917,-3.9192,-3.9338,-3.9409,-3.9288,-3.9287,-3.9313,-3.9484,-3.954,-3.9558,-3.9784,-3.9617,-3.9629,-3.9638,-3.9643,-4.0166,-4.0171,0,0,0,0,0,0,-3.888,-3.8918,-3.9232,-3.9245,-3.9028,-3.9182,-3.9206,-3.9282,-3.9408,-3.9422,-3.9317,-3.9311,-3.9519,-3.9542,-3.9565,-3.9791,-3.9632,-3.9644,-3.9652,-4.016,-4.0167,-4.0173,0,0,0,0,0,0,-3.8871,-3.8908,-3.9223,-3.9081,-3.9121,-3.9194,-3.928,-3.9289,-3.9345,-3.9429,-3.9442,-3.936,-3.9516,-3.9546,-3.9713,-3.9798,-3.965,-3.9663,-4.0153,-4.0162,-4.017,-4.0244,0,0,0,0,0,0,-3.8859,-3.8905,-3.8977,-3.9083,-3.9129,-3.9367,-3.9285,-3.9297,-3.9368,-3.9362,-3.9473,-3.9487,-3.9514,-3.9693,-3.9726,-3.9814,-3.9673,-4.0146,-4.0157,-4.0167,-4.0234,-4.0254,-4.0271,0,0,0,0,0,-3.8844,-3.8989,-3.898,-3.9018,-3.9219,-3.9372,-3.9398,-3.9427,-3.9375,-3.9447,-3.9501,-3.9483,-3.9783,-3.971,-3.9747,-3.9841,-4.014,-4.0154,-4.0166,-4.0226,-4.025,-4.0271,0,0,0,0,0,0,-3.8892,-3.9004,-3.8995,-3.9179,-3.9266,-3.9367,-3.946,-3.9452,-3.9556,-3.9546,-3.9578,-3.9603,-3.9771,-3.9822,-3.9738,-4.0027,-3.9955,-3.9976,-3.9987,-4.0011,-4.0029,-4.0014,-3.9685,0,0,0,0,0,-3.8923,-3.9038,-3.913,-3.9283,-3.9327,-3.9386,-3.9454,-3.9469,-3.956,-3.9597,-3.9663,-3.9752,-3.9867,-3.9942,-4.0052,-4.0241,-4.0265,-4.0324,-4.0343,-4.0357,-4.0375,-4.0479,-4.0507,-4.0216,-4.0216,-4.0215,0,0,-3.8991,-3.9066,-3.9136,-3.9295,-3.9364,-3.9482,-3.9417,-3.9545,-3.9633,-3.9616,-3.9777,-3.9829,-3.9931,-4.011,-4.0192,-4.0158,-4.0461,-4.0374,-4.0385,-4.0395,-4.0496,-4.0523,-4.0547,-4.0225,-4.0223,-4.0222,0,0,-3.9173,-3.9242,-3.9378,-3.9448,-3.9553,-3.9591,-3.9624,-3.9726,-3.976,-3.9922,-3.9912,-4.0017,-4.0213,-4.0286,-4.0349,-4.0559,-4.0546,-4.0594,-4.0691,-4.0792,-4.0814,-4.0835,-4.091,-4.0936,-4.0611,-4.0612,-4.0612,0,-3.9244,-3.9421,-3.9448,-3.9577,-3.9647,-3.9637,-3.9775,-3.9842,-3.9978,-4.0026,-3.9986,-4.0232,-4.03,-4.0496,-4.0547,-4.0598,-4.0636,-4.0582,-4.0809,-4.083,-4.0849,-4.0921,-4.0949,-4.0617,-4.0616,-4.0616,-4.0615,0,-3.9502,-3.9625,-3.9722,-3.9853,-3.9934,-4.0067,-4.0114,-4.0192,-4.02,-4.0242,-4.0407,-4.0488,-4.0614,-4.0662,-4.067,-4.0859,-4.0834,-4.0802,-4.073,-4.0882,-4.095,-4.0977,-4.0624,-4.0622,-4.0621,-4.062,0,0,-3.9722,-3.9866,-3.9901,-3.996,-4.0075,-4.0171,-4.0303,-4.0426,-4.0493,-4.0587,-4.0698,-4.0864,-4.0834,-4.0906,-4.0923,-4.1011,-4.1172,-4.0967,-4.097,-4.1003,-4.1384,-4.1409,-4.144,-4.1164,-4.1169,-4.1173,-4.1376,0,-3.9917,-4.015,-4.0178,-4.0385,-4.0499,-4.0491,-4.0606,-4.0689,-4.0731,-4.0834,-4.0881,-4.0999,-4.095,-4.0993,-4.108,-4.1134,-4.1249,-4.112,-4.1268,-4.1273,-4.1243,-4.1476,-4.1502,-4.169,-4.1403,-4.1407,-4.141,0,-4.0175,-4.0276,-4.0494,-4.0593,-4.0642,-4.0745,-4.0859,-4.0958,-4.1051,-4.1076,-4.1156,-4.1161,-4.1297,-4.1219,-4.1407,-4.1319,-4.1381,-4.1416,-4.1424,-4.144,-4.1351,-4.1498,-4.175,-4.1778,-4.1453,-4.1449,-4.1446,0,-4.0314,-4.0504,-4.0659,-4.071,-4.0829,-4.0901,-4.0954,-4.1043,-4.1115,-4.1215,-4.1262,-4.1377,-4.144,-4.1529,-4.1565,-4.1505,-4.1752,-4.1677,-4.1776,-4.1776,-4.1829,-4.1826,-4.2096,-4.1869,-4.1868,-4.1868,-4.1867,0,-4.0528,-4.0662,-4.0723,-4.0819,-4.0969,-4.0999,-4.1147,-4.1197,-4.1276,-4.1381,-4.138,-4.1479,-4.1521,-4.1626,-4.1655,-4.1807,-4.1835,-4.1859,-4.1865,-4.186,-4.1857,-4.1901,-4.1889,-4.1875,-4.1873,-4.1872,-4.1871,0,-4.0709,-4.0755,-4.0924,-4.1022,-4.105,-4.1156,-4.1241,-4.1333,-4.1374,-4.1507,-4.154,-4.1605,-4.1729,-4.1774,-4.1924,-4.1944,-4.212,-4.2115,-4.2088,-4.209,-4.2187,-4.2177,-4.2496,-4.2539,-4.2283,-4.2285,-4.2287,0,-4.0843,-4.0946,-4.1055,-4.1125,-4.1181,-4.1294,-4.1367,-4.1401,-4.1478,-4.1592,-4.1671,-4.1794,-4.1894,-4.2092,-4.2153,-4.2268,-4.2267,-4.237,-4.2284,-4.2275,-4.2269,-4.2262,-4.2273,-4.2386,-4.2389,-4.2391,-4.2393,0,-4.1076,-4.1094,-4.1199,-4.1313,-4.14,-4.1491,-4.158,-4.1637,-4.1684,-4.177,-4.1897,-4.1975,-4.2128,-4.2251,-4.2368,-4.2423,-4.2417,-4.2419,-4.2449,-4.2444,-4.2425,-4.2437,-4.2132,-4.2412,-4.241,-4.2409,-4.2408,-4.2407,-4.1238,-4.1329,-4.142,-4.1538,-4.1607,-4.169,-4.1782,-4.1834,-4.194,-4.2067,-4.2081,-4.2217,-4.2307,-4.2465,-4.2525,-4.2632,-4.2604,-4.2646,-4.2657,-4.2667,-4.2674,-4.2407,-4.2654,-4.2653,-4.2653,-4.2652,-4.2652,0,-4.1472,-4.153,-4.1637,-4.1761,-4.1853,-4.1838,-4.1935,-4.2013,-4.2133,-4.2218,-4.2316,-4.2461,-4.258,-4.2649,-4.2768,-4.284,-4.284,-4.287,-4.2866,-4.2879,-4.2693,-4.2656,-4.2869,-4.2868,-4.2868,-4.2868,-4.2868,-4.2868,-4.1604,-4.1758,-4.1786,-4.1973,-4.203,-4.2163,-4.222,-4.2296,-4.2364,-4.2526,-4.2624,-4.2668,-4.2747,-4.2871,-4.2979,-4.2997,-4.3041,-4.3074,-4.3089,-4.2914,-4.2892,-4.287,-4.2836,-4.3083,-4.3083,-4.3266,-4.3267,-4.3269]}]]